Flag for U.S.A. Weather past 2 weeks in Cocoa Beach, Florida, U.S.A.

Now
67 °F

Fog.


Feels Like: 67 °F
Forecast: 66 / 79 °F
Wind: 5 mph from Southeast

Location: Cocoa / Patrick Air Force Base

Current Time: Mar 4, 2015 at 4:17:19 AM

Latest Report: Mar 4, 2015 at 3:58 AM


Visibility: 5 mi

Pressure: 30.11 "Hg

Humidity: 99%

Dew point: 67 °F

Location of Cocoa BeachLocation

Historic Weather in Cocoa Beach — Graph

°F

Cocoa Beach temperature yesterday

Maximum temperature yesterday: 75 °F (at 3:58 PM)
Minimum temperature yesterday: 65 °F (at 5:58 AM)
Average temperature yesterday: 69 °F

Past Weeks' High & Low Weather Summary

 TemperatureHumidityPressure
High82 °F (Feb 23, 3:58 PM)100% (Feb 18, 2:03 AM)30.44 "Hg (Feb 18, 2:03 AM)
Low38 °F (Feb 20, 6:58 AM)25% (Feb 19, 12:58 PM)29.71 "Hg (Feb 26, 3:58 AM)
Average64 °F81%30.15 "Hg
* Reported Feb 17 2:58 AM — Mar 4 2:58 AM, Cocoa Beach, Weather by CustomWeather, © 2015

Note: Actual official high and low records may vary slightly from our data, if they occured in-between our weather recording intervals... More about our weather records

Advertising

Cocoa Beach weather history for previous 24 hours

 ConditionsComfort  
Time TempWeatherWind HumidityBarometerVisibility
2:58 AM
Wed, Mar 4
68 °FClear.6 mph99%30.13 "Hg10 mi
1:58 AM68 °FFog.3 mph99%30.14 "Hg4 mi
12:58 AM68 °FFog.6 mph97%30.16 "Hg6 mi
11:58 PM
Tue, Mar 3
69 °FClear.7 mph97%30.16 "Hg10 mi
10:58 PM69 °FClear.7 mph95%30.18 "Hg10 mi
9:58 PM69 °FClear.7 mph95%30.18 "Hg10 mi
8:58 PM70 °FClear.7 mph94%30.18 "Hg10 mi
7:58 PM70 °FClear.9 mph93%30.17 "Hg10 mi
6:58 PM70 °FClear.10 mph91%30.16 "Hg10 mi
5:58 PM72 °FSunny.12 mph87%30.15 "Hg10 mi
4:58 PM74 °FSunny.12 mph82%30.15 "Hg10 mi
3:58 PM75 °FSunny.10 mph83%30.16 "Hg10 mi
2:58 PM75 °FSunny.9 mph81%30.17 "Hg10 mi
1:58 PM74 °FSunny.6 mph83%30.19 "Hg10 mi
12:58 PM74 °FSunny.7 mph82%30.22 "Hg10 mi
11:58 AM72 °FSunny.8 mph89%30.24 "Hg10 mi
10:59 AM72 °FSunny.6 mph94%30.25 "Hg10 mi
9:58 AM69 °FMild.N/A100%30.26 "HgN/A
9:03 AM68 °FFog.3 mph100%30.23 "Hg2 mi
8:58 AM68 °FFog.3 mph100%30.24 "Hg1 mi
7:58 AM68 °FFog.6 mph100%30.23 "Hg0 mi
6:58 AM65 °FFog.2 mph100%30.21 "Hg0 mi
5:58 AM65 °FFog.2 mph100%30.20 "Hg1 mi
5:03 AM66 °FFog.3 mph100%30.18 "Hg1 mi
4:03 AM66 °FFog.2 mph100%30.17 "Hg4 mi
Weather by CustomWeather, © 2015

See weather overviewHow to use our weather pages